Wind_Speed
17 17 17 17 17 18 18 18 18 18 17 17 18 21 22 22 22 21 20 19 18 18 18 20 22 24 26 27 26 25 24 23 21 20 19 16 15 15 13 13 12 11 12 12 12 11 10 9 8 8 7 6 5 4 3 3 3 4 6 7 8 12 3 8 13 19 21 19 20 17 16 15 14 12 11 13 13 14 15 13 11 8 6 9 13 18 19 15
19 19 18 18 19 19 19 19 19 19 19 18 18 20 22 24 24 23 22 22 21 20 20 20 21 23 25 28 29 28 27 25 25 24 21 19 19 18 15 14 13 12 12 13 12 11 10 9 8 8 8 7 6 5 4 3 3 4 6 7 9 11 3 4 10 22 24 21 22 19 16 15 14 13 12 13 15 15 16 15 12 9 6 7 11 17 18 15
20 20 20 20 19 20 20 21 21 21 21 21 20 20 21 24 26 26 25 24 23 22 22 21 21 22 24 26 28 30 30 29 29 27 24 23 22 20 17 16 15 14 14 13 10 9 9 9 9 9 9 8 7 5 4 4 4 4 6 7 10 9 4 6 14 27 27 23 23 20 17 15 13 13 13 13 14 15 17 17 14 11 8 8 12 16 16 14
21 22 22 21 21 21 21 21 22 22 22 22 22 22 22 23 25 27 28 27 25 25 24 23 23 22 23 25 26 29 30 32 32 29 28 27 24 23 21 19 18 17 15 13 10 9 11 11 11 11 9 8 7 6 5 5 4 4 5 7 9 9 6 7 23 32 28 24 22 19 16 14 13 13 14 14 14 14 14 16 17 15 12 11 13 15 16 14
22 22 23 23 23 23 22 22 23 23 23 24 24 24 24 23 24 26 29 29 28 27 27 26 25 24 24 24 26 27 29 32 32 31 31 30 27 26 24 22 21 19 17 14 12 12 13 13 12 11 10 8 7 7 6 5 4 4 2 7 9 8 7 13 29 30 24 23 21 18 16 14 12 11 11 12 13 14 13 13 16 17 16 16 15 15 15 14
24 24 24 24 24 24 24 24 24 24 25 25 25 25 25 25 25 26 28 30 30 30 29 28 27 26 25 25 25 26 28 30 30 31 32 32 31 30 27 25 24 22 19 17 15 15 15 14 14 12 10 9 8 8 7 6 6 5 1 7 7 6 13 21 26 24 22 22 20 18 16 15 13 11 10 10 11 13 14 12 12 14 15 16 17 16 15 14
27 26 25 25 25 25 26 26 26 26 26 26 26 27 27 26 26 27 27 30 31 32 31 30 29 28 27 26 26 26 27 28 28 30 31 32 32 32 30 28 27 25 22 20 18 18 17 17 16 14 11 10 9 8 8 6 7 7 1 6 5 5 12 17 18 19 20 21 20 18 16 15 13 12 11 11 12 13 15 13 12 12 12 14 15 16 15 13
30 28 27 27 26 26 27 27 28 28 28 28 28 28 28 27 27 27 28 29 31 33 33 32 31 30 29 28 28 27 27 27 28 29 29 30 31 32 32 31 30 28 26 23 22 22 22 20 18 16 13 12 11 9 9 8 8 6 2 4 4 5 8 11 13 16 18 18 19 17 15 15 14 13 13 13 13 14 15 14 13 12 11 11 14 16 15 14
32 30 29 28 28 28 27 28 29 30 30 30 30 29 28 28 28 28 29 29 31 32 33 33 32 31 31 30 29 29 28 27 27 28 28 29 30 31 32 32 33 32 29 27 26 26 25 24 22 18 16 14 12 10 10 9 8 6 3 3 2 3 5 8 11 14 17 17 17 16 15 14 14 13 13 14 14 13 14 14 14 13 11 11 13 15 16 15
34 32 30 29 29 29 29 29 29 30 31 32 32 31 30 29 29 29 29 30 31 32 33 33 33 32 32 32 31 31 29 28 28 28 28 28 29 30 30 32 33 33 32 30 29 29 29 28 24 21 18 16 14 13 11 10 9 7 6 6 4 4 5 6 9 13 15 17 17 16 15 14 14 14 14 14 14 13 13 13 14 13 11 11 12 13 14 15
35 33 31 30 30 30 30 30 30 31 32 32 32 32 31 30 30 30 30 30 31 32 32 33 33 33 33 32 33 32 31 30 29 28 28 28 29 29 30 31 32 32 33 32 32 32 32 31 27 24 21 19 17 15 13 12 10 8 8 8 6 6 6 7 8 10 13 15 16 16 17 16 15 15 14 14 13 13 13 13 14 13 11 11 11 11 13 14
36 34 32 31 31 30 30 30 31 31 31 32 32 31 30 29 29 30 30 30 30 32 33 33 33 34 33 33 34 33 32 32 31 30 29 29 29 29 30 31 31 31 32 33 34 35 35 34 30 27 24 22 20 17 16 14 11 10 9 8 7 5 5 7 7 8 11 14 16 17 18 17 16 15 14 14 13 12 12 12 13 13 11 11 12 12 12 13
37 35 33 33 32 31 30 30 30 30 30 30 30 30 29 29 29 29 30 30 30 31 33 33 33 33 33 34 33 33 33 33 33 32 31 31 30 30 30 31 30 30 30 32 34 36 36 35 33 30 28 26 22 19 18 15 13 11 10 9 10 7 5 5 5 7 9 10 13 17 18 19 18 16 15 14 13 13 12 12 13 13 12 11 12 12 13 13
37 36 34 33 32 31 30 29 28 28 28 29 29 29 28 28 28 29 29 30 30 31 33 34 33 33 34 34 33 32 33 35 35 35 33 32 32 31 32 32 31 30 30 30 32 34 35 34 33 32 31 28 24 22 20 17 15 12 11 11 11 10 8 6 4 6 7 7 11 17 21 22 21 18 16 14 14 14 14 12 13 13 12 12 13 13 13 14
37 36 34 34 32 30 29 28 26 26 26 27 27 27 27 27 28 28 29 29 29 30 32 34 34 33 33 34 33 34 35 36 37 37 35 34 33 32 32 33 32 31 31 30 31 33 32 32 32 32 31 28 26 24 22 19 16 14 13 13 13 11 10 9 6 5 5 5 8 15 23 25 23 20 19 17 15 15 15 14 14 14 13 12 13 13 13 14
37 36 34 32 30 28 26 25 24 24 24 25 26 27 27 27 27 27 28 28 28 30 31 33 34 33 33 33 34 35 36 37 37 37 37 35 34 33 33 33 32 32 31 31 32 32 31 30 31 31 30 29 27 25 23 21 18 17 15 14 14 13 12 11 9 6 4 5 5 7 17 25 24 22 21 19 16 15 15 15 15 15 14 13 13 14 14 14
37 35 33 30 27 25 23 22 22 22 23 24 25 26 26 26 25 25 25 25 26 27 29 31 33 33 33 33 35 36 37 36 36 37 37 36 35 34 33 33 33 32 32 32 32 32 31 31 30 29 29 29 27 25 24 22 19 19 17 16 16 15 15 13 12 9 6 5 7 7 11 17 22 23 23 20 17 15 15 15 16 15 15 14 14 14 15 15
35 33 30 26 23 21 20 20 21 21 22 23 23 23 23 23 22 22 22 22 23 24 27 30 31 32 33 33 35 36 36 35 35 36 36 36 36 35 35 34 33 33 32 32 33 33 32 32 30 28 28 27 25 24 23 22 22 21 19 18 18 17 17 16 14 13 9 6 8 9 8 10 18 23 24 22 19 17 16 16 16 16 16 15 14 14 14 14
33 29 25 21 19 19 19 19 20 20 20 20 20 20 19 19 18 19 20 20 21 22 25 28 29 31 31 32 34 34 34 34 34 35 35 37 37 37 36 35 34 33 33 33 32 33 32 32 30 28 26 24 23 24 24 24 25 24 22 20 20 20 19 18 16 14 12 9 8 9 7 7 12 20 24 24 21 19 16 15 16 16 17 16 14 14 13 13
30 24 20 19 18 18 18 18 18 18 18 17 17 16 16 15 15 15 16 17 19 20 22 25 27 29 30 31 32 33 33 34 34 34 35 37 37 37 37 36 35 34 33 33 33 32 32 32 30 27 25 23 24 25 26 26 26 25 24 22 21 21 20 18 16 14 13 12 9 8 7 5 9 17 23 24 22 20 17 14 15 15 16 16 15 13 13 12
27 21 17 17 18 17 17 17 17 17 16 15 14 14 13 13 13 12 13 15 16 17 20 22 25 27 28 30 31 32 33 34 34 34 35 36 37 38 38 37 36 35 34 34 34 33 33 31 28 27 27 27 27 26 26 27 26 25 25 23 22 22 20 19 16 14 14 13 12 10 8 7 7 12 20 23 21 20 18 15 15 15 16 16 15 14 13 12
24 19 15 17 18 17 16 16 16 16 14 13 12 12 11 11 11 10 11 13 14 16 19 21 23 25 26 28 30 31 32 33 34 34 34 35 36 38 38 37 37 36 35 34 34 34 33 30 28 30 31 31 28 27 27 27 26 26 25 23 24 24 22 21 19 16 15 14 14 13 11 10 8 9 15 21 22 21 20 19 17 17 16 16 16 14 13 13
22 18 15 17 17 15 14 15 15 14 13 12 12 12 11 10 10 9 11 12 13 15 18 20 21 22 23 25 28 31 32 33 33 33 33 34 35 37 37 38 38 37 36 35 34 33 32 30 30 33 34 32 30 28 27 28 27 26 26 24 25 26 24 23 22 17 15 14 14 14 13 12 11 9 12 18 21 22 21 20 18 17 18 18 17 17 16 15
20 17 16 16 15 14 14 13 13 13 12 12 12 12 12 11 9 9 10 12 13 15 17 19 20 21 22 24 27 30 32 32 33 33 33 34 34 35 37 38 38 38 37 36 35 33 32 31 33 34 34 33 32 29 28 28 27 26 27 26 23 24 24 23 21 18 16 14 13 13 13 14 13 11 12 15 19 22 21 20 19 17 17 18 17 16 17 17
18 16 14 14 13 13 12 12 13 12 12 12 13 12 10 10 9 8 10 12 14 16 17 19 20 21 22 24 26 28 30 32 33 33 33 34 34 34 36 37 38 38 37 36 35 34 34 34 35 34 34 34 33 31 29 29 28 28 29 28 23 21 21 21 21 20 18 16 15 15 14 14 15 14 13 14 17 23 24 21 20 18 16 16 16 15 15 16
15 13 12 11 11 11 11 12 12 12 12 12 11 10 9 8 7 7 9 11 13 15 17 19 20 21 22 24 25 26 29 31 33 34 34 35 34 34 35 36 37 37 37 36 36 35 35 36 35 35 34 35 34 33 31 30 29 29 29 30 27 25 23 22 22 22 20 19 19 18 16 15 16 15 14 13 15 21 25 24 22 20 16 15 16 17 15 16
13 11 10 10 10 11 11 11 11 11 11 11 10 8 7 6 4 5 7 9 12 14 17 18 19 21 22 24 24 25 28 30 32 34 35 35 35 34 35 35 36 36 36 36 36 36 37 36 35 35 35 35 35 34 32 31 30 29 30 30 29 28 27 25 26 25 23 23 22 20 17 16 16 16 15 14 13 16 21 24 23 19 16 16 16 17 17 17
11 10 10 11 12 12 12 11 11 11 10 10 9 8 6 5 3 4 6 8 10 13 16 18 19 20 22 23 24 26 27 28 30 33 34 35 35 35 35 35 36 36 36 36 36 36 36 36 36 36 36 35 35 34 33 32 31 31 31 31 30 30 29 29 28 27 26 25 23 20 19 17 16 16 16 15 14 13 15 20 23 19 17 18 17 17 17 17
11 11 12 12 12 12 12 12 11 11 11 11 11 9 6 4 1 2 5 7 10 13 16 18 20 20 22 23 24 25 26 28 31 32 33 34 35 36 36 36 36 36 37 37 37 36 36 37 38 38 37 36 35 35 35 34 33 33 33 32 32 32 31 30 30 29 29 27 24 23 22 20 18 17 17 17 17 16 15 18 21 20 19 19 18 18 18 17
13 13 12 12 12 12 12 12 12 12 13 13 12 11 9 7 7 4 4 7 9 11 15 17 18 19 22 24 24 25 27 28 30 31 32 33 34 36 37 37 37 37 37 37 38 37 37 38 40 39 38 36 35 36 36 35 35 35 35 34 34 34 33 32 31 31 30 27 25 25 25 24 22 20 20 19 18 19 19 20 21 21 20 21 21 20 18 17
14 13 12 12 12 12 12 12 12 12 13 13 13 13 12 10 9 7 5 6 6 9 13 15 16 18 21 23 24 25 27 28 29 31 32 33 33 35 36 36 37 38 38 38 38 38 38 39 40 40 38 37 37 37 36 36 37 38 37 36 36 36 36 35 33 32 31 28 27 27 27 26 24 23 23 21 19 19 20 21 22 22 21 21 21 21 19 18
14 13 13 13 13 13 13 13 13 13 12 12 12 12 12 10 8 6 4 3 3 5 8 11 13 14 16 19 22 24 26 28 29 30 31 32 33 34 35 36 37 37 38 38 38 37 37 39 40 40 39 39 39 38 37 37 39 40 40 39 39 39 38 37 36 34 32 29 28 28 27 27 25 26 26 24 21 20 20 21 22 22 23 23 23 22 22 21
14 13 13 13 12 12 12 13 13 13 12 11 10 10 10 9 6 4 4 3 3 2 4 7 9 11 12 15 18 20 23 25 27 28 30 31 33 34 34 35 36 37 37 38 38 37 37 39 39 39 39 40 40 39 37 37 40 41 40 40 39 39 39 38 36 35 32 29 28 27 27 25 25 27 27 25 24 23 21 21 21 21 22 24 26 25 24 24
14 13 13 12 11 11 11 12 13 13 12 11 10 9 9 8 6 4 4 3 3 2 2 4 6 9 10 12 15 18 20 21 24 27 29 30 32 33 34 35 36 37 37 37 38 38 39 39 39 38 39 40 40 39 37 37 39 41 40 40 39 38 37 35 34 32 29 28 28 28 26 23 24 26 25 25 25 24 23 22 21 21 20 22 26 27 27 27
13 12 12 11 10 10 10 11 13 13 12 11 9 8 8 8 7 6 4 3 3 3 2 1 3 6 8 9 13 16 18 20 22 25 28 29 31 33 34 35 36 36 36 37 38 39 40 40 39 38 38 38 39 38 37 37 40 41 41 41 40 39 37 35 33 30 27 27 29 30 27 22 21 24 25 25 26 24 24 23 22 22 20 18 21 26 28 28
12 11 11 10 9 9 10 11 12 13 12 10 8 7 6 6 6 6 5 4 3 4 3 2 1 4 7 10 12 15 18 20 21 24 26 28 30 32 34 35 35 36 36 36 37 39 40 40 39 38 37 37 38 38 38 38 39 41 42 41 41 40 38 36 34 30 27 29 30 30 28 22 21 24 25 25 26 24 22 22 22 22 20 16 18 25 29 31
10 9 10 10 9 9 10 12 12 12 12 10 7 6 5 5 5 4 4 2 1 2 3 2 2 2 7 10 12 15 18 19 21 23 24 26 27 29 32 34 35 36 36 35 36 38 39 40 40 38 37 37 38 39 40 40 39 40 41 41 40 40 39 37 35 32 30 30 30 29 28 24 24 24 24 24 24 22 20 20 21 21 21 18 17 21 26 29
9 8 8 9 9 9 10 12 13 12 11 9 8 6 5 4 3 2 2 0 1 1 2 1 1 3 8 10 12 14 16 18 20 21 22 24 24 26 29 31 33 34 35 35 35 37 38 39 39 38 37 37 38 39 41 42 41 40 41 41 41 41 40 39 37 34 32 32 30 28 28 26 25 25 24 23 22 21 20 19 19 21 22 22 20 18 18 21
8 7 8 8 8 8 10 12 12 11 10 9 9 8 7 4 3 2 1 1 3 1 2 2 1 4 9 12 12 14 14 16 17 18 19 21 21 23 25 28 30 32 33 34 34 35 37 37 38 38 37 37 38 40 41 42 42 41 41 42 42 41 41 40 38 35 33 33 31 29 28 27 25 24 24 24 22 20 20 20 20 20 21 22 21 18 16 18
8 8 7 7 6 7 9 10 11 10 10 10 10 10 8 6 3 2 1 2 4 4 3 4 2 4 10 14 14 15 14 15 15 15 16 18 19 20 22 24 26 29 32 32 33 34 35 36 37 38 38 38 39 41 41 41 42 42 41 42 43 43 43 41 39 37 35 34 32 30 30 27 24 25 25 24 22 21 21 21 21 19 19 20 21 19 17 20
9 8 7 6 5 6 8 9 9 9 9 10 10 10 10 7 4 2 2 2 3 5 5 6 5 5 10 15 16 17 16 15 15 15 15 16 17 17 19 21 24 26 29 31 31 33 33 34 36 37 38 39 39 41 41 41 41 41 40 40 41 44 44 43 42 40 38 36 34 32 31 28 25 25 26 25 23 21 21 22 21 20 19 19 20 20 20 21
8 8 7 6 5 5 6 8 8 9 9 10 10 10 10 9 6 3 2 2 2 4 6 7 7 6 9 14 17 18 17 16 16 17 17 16 16 16 17 18 20 23 26 28 29 32 32 33 34 36 37 39 39 40 40 40 40 40 40 40 41 43 45 45 44 41 39 38 36 34 33 31 28 26 27 27 25 23 22 22 22 21 21 20 20 21 21 21
6 7 7 6 5 3 4 5 6 8 9 9 9 9 10 11 9 5 3 3 2 3 6 9 9 8 9 13 16 17 17 16 16 17 18 17 16 16 16 15 17 20 23 25 27 30 32 31 32 34 36 37 38 38 38 39 39 40 41 41 42 43 44 45 44 42 41 40 37 35 35 34 32 29 27 26 26 25 25 24 23 22 21 21 22 22 22 21
7 6 5 6 5 2 2 3 5 7 8 8 8 9 10 12 12 8 4 3 3 1 5 9 11 10 9 11 15 17 17 16 16 16 16 16 15 15 15 14 14 16 20 23 26 29 30 29 30 33 34 35 37 38 38 38 39 39 41 42 43 43 44 46 46 45 43 42 40 38 36 35 35 33 31 29 27 26 26 26 25 24 22 21 22 23 23 23
8 6 5 5 4 3 2 2 3 5 6 6 7 8 9 11 12 10 5 3 3 1 3 7 11 12 12 11 13 16 17 16 16 16 15 15 15 14 14 13 13 13 16 21 25 27 28 28 29 31 32 33 36 38 38 39 40 40 41 42 43 43 44 46 47 48 47 45 43 40 38 36 36 35 34 33 32 29 28 27 26 26 24 22 23 24 24 24
8 7 6 5 4 3 3 3 2 4 4 5 6 8 9 10 12 11 6 3 3 2 2 4 7 11 13 13 13 14 16 17 16 17 16 15 15 15 14 14 14 13 14 18 23 26 28 28 28 30 31 32 34 37 38 39 39 40 41 42 42 43 44 46 48 49 48 47 45 43 41 38 37 36 35 34 34 33 31 30 29 28 26 24 23 23 23 23
7 7 6 5 4 3 3 3 2 3 3 3 5 7 9 9 10 10 6 3 3 3 1 2 4 8 10 12 13 14 16 18 18 18 18 16 16 15 15 15 15 15 15 16 20 25 27 28 28 29 31 32 33 35 37 38 38 39 40 40 41 42 43 45 47 48 49 48 47 46 43 41 38 37 35 35 35 34 33 32 32 31 29 27 25 24 24 23
7 6 6 5 5 4 3 3 2 2 1 1 3 5 7 8 9 9 7 3 2 4 3 0 3 7 9 10 11 13 16 19 20 20 20 18 17 16 15 15 15 16 16 16 18 23 26 28 29 30 32 32 32 34 36 37 38 38 38 39 40 41 42 44 46 47 48 49 48 47 45 43 42 39 37 36 35 35 34 34 33 32 31 29 28 27 27 26
7 6 6 6 5 4 3 3 2 2 1 1 2 3 5 7 7 8 8 4 1 3 4 2 1 5 9 10 10 11 13 18 21 22 22 21 19 18 16 16 15 16 17 17 18 21 25 28 30 32 33 33 32 33 35 37 37 37 37 37 38 39 40 42 44 46 47 48 48 47 46 45 44 42 40 38 36 36 36 35 35 34 33 32 30 30 30 30
7 6 6 6 6 5 4 3 3 2 2 1 1 2 3 5 6 7 7 5 2 1 3 3 2 2 5 9 11 11 10 14 20 23 23 22 21 19 18 16 15 16 17 18 19 20 23 27 31 33 34 34 34 34 35 37 37 37 37 36 36 37 38 39 41 44 46 47 48 48 47 47 46 44 43 41 39 38 37 37 37 37 36 36 34 34 34 34
7 6 6 7 7 6 5 4 3 3 2 1 2 1 2 3 4 5 6 6 3 1 1 2 3 3 3 5 8 9 8 9 14 20 22 22 21 20 18 16 15 15 16 18 19 20 21 25 30 34 34 34 34 34 35 37 38 38 38 37 36 36 36 36 38 40 43 45 46 47 46 46 45 45 44 44 42 40 39 39 39 39 39 39 38 37 36 37
7 5 6 8 8 7 6 4 3 3 2 2 3 2 1 2 3 3 4 5 4 1 2 1 1 2 2 3 4 7 7 6 6 11 16 19 20 19 19 17 16 15 16 18 20 20 20 23 28 34 36 35 34 34 35 37 39 39 39 39 38 37 36 36 36 37 39 41 42 43 44 44 44 44 45 45 43 41 41 42 42 41 40 40 38 37 35 35
Wind_Direction
313 310 307 303 300 298 296 293 291 287 278 265 257 254 251 248 245 243 241 238 234 229 226 223 221 218 216 216 216 216 215 213 215 217 214 206 203 204 202 202 202 204 208 213 221 226 231 233 235 242 245 248 250 251 265 283 327 336 328 335 2 2 354 162 155 160 161 157 152 147 144 141 139 134 129 126 127 138 139 140 143 137 145 151 137 127 126 127
311 307 303 300 297 294 292 289 287 285 282 275 263 255 252 249 246 243 242 239 236 232 228 225 223 221 219 218 219 220 219 218 217 217 217 214 212 208 205 207 206 205 209 214 220 225 230 235 236 241 245 248 251 253 262 282 313 321 322 342 6 0 324 206 174 163 159 160 155 150 150 148 144 136 131 129 129 138 139 137 135 130 144 160 143 129 126 126
309 305 301 297 293 291 289 287 284 281 279 277 271 262 253 249 248 245 242 240 238 235 232 227 224 222 221 220 220 221 222 223 222 219 218 219 217 213 211 213 212 209 210 214 218 222 224 226 229 232 237 244 251 256 264 279 294 311 321 357 8 353 304 240 185 165 160 161 156 151 153 150 143 135 130 129 130 139 144 138 134 134 141 158 149 133 128 128
307 303 300 296 291 287 285 284 282 279 276 273 272 268 260 252 247 245 243 241 238 236 234 230 227 223 222 222 221 221 222 224 226 223 221 221 219 217 215 215 217 214 212 212 212 215 217 220 226 227 230 237 244 252 258 268 282 301 325 18 18 359 333 214 173 160 157 158 154 151 152 148 143 138 133 131 131 139 147 140 137 140 142 152 152 139 134 134
305 301 297 294 291 286 282 280 278 277 274 271 268 266 264 257 249 245 243 242 239 237 235 232 229 226 223 223 222 221 221 224 227 226 225 223 221 220 218 217 219 218 216 213 213 218 219 219 224 225 227 231 236 245 250 257 265 279 331 43 31 24 57 146 156 150 151 154 154 153 151 149 145 136 131 132 134 137 145 145 141 144 147 153 152 144 140 139
307 301 295 291 288 285 281 278 276 274 272 269 266 264 262 259 254 247 243 241 240 238 236 233 231 228 225 223 223 222 221 223 225 227 227 225 224 223 220 219 221 221 219 217 219 223 224 222 222 222 224 227 231 238 243 249 251 259 297 65 50 66 105 131 144 145 150 154 155 158 155 151 143 132 127 130 136 135 139 145 146 146 151 154 150 145 142 141
309 304 298 291 286 282 280 277 275 273 271 269 265 262 260 258 255 250 245 241 239 238 237 235 232 229 226 224 223 223 222 222 223 225 227 226 225 225 223 222 223 224 222 219 221 225 227 225 223 222 222 224 228 231 234 236 241 251 221 81 75 124 132 136 145 149 154 157 160 163 158 152 144 137 133 134 138 134 134 142 148 148 154 155 147 142 141 141
309 305 300 295 288 282 278 276 275 272 270 269 266 262 258 256 254 251 247 243 240 238 237 236 233 230 227 225 223 223 223 221 221 222 225 225 225 226 225 223 224 224 223 220 221 224 227 227 224 223 222 224 226 228 231 229 234 241 177 99 102 142 151 153 158 158 159 163 167 168 160 151 147 144 139 138 139 134 135 143 148 151 156 155 146 141 141 144
310 306 301 297 292 285 279 275 273 272 270 268 266 263 259 255 253 251 247 244 242 239 237 236 234 231 228 225 224 223 222 222 221 221 221 223 223 224 224 224 223 223 223 221 221 225 228 228 225 223 223 225 226 224 227 226 228 228 178 152 159 167 178 179 175 168 166 171 174 171 163 155 150 149 143 139 138 137 140 143 146 152 158 158 151 147 146 150
311 308 303 298 293 288 282 276 272 270 269 267 265 263 260 255 251 250 247 244 241 240 238 236 234 232 229 226 224 223 222 221 221 220 219 220 221 222 222 223 223 222 222 221 221 225 228 229 226 224 224 225 226 224 224 222 220 215 193 183 189 204 206 197 188 176 174 181 182 173 167 164 158 154 148 139 138 141 145 145 143 149 161 165 160 153 150 152
313 310 305 300 294 288 283 277 272 268 266 265 264 262 260 256 251 248 247 243 240 239 238 236 234 231 229 226 224 222 221 220 220 219 218 218 219 220 220 221 221 220 220 219 220 223 227 229 227 225 225 225 226 226 224 222 217 213 203 194 197 209 217 214 200 184 181 186 189 182 174 172 166 161 152 143 143 144 146 147 142 143 159 171 165 157 154 153
314 311 307 301 294 288 282 276 271 268 265 264 263 262 259 256 251 248 246 244 239 236 236 236 234 231 229 227 225 222 220 219 218 218 217 216 216 218 219 220 221 219 218 217 219 222 226 228 226 225 225 224 225 225 226 223 215 212 204 200 206 208 221 218 196 186 191 191 195 191 183 179 173 164 155 147 145 143 144 147 142 139 153 171 168 162 161 156
315 311 306 300 293 286 280 275 270 268 265 264 262 261 259 255 251 248 246 244 239 234 233 233 233 230 228 226 225 222 220 219 218 217 215 214 213 214 216 218 219 219 218 217 219 222 225 227 225 225 225 224 224 224 227 224 217 212 201 204 211 198 197 206 183 185 198 199 201 199 190 185 179 167 158 152 145 142 144 147 143 138 146 168 171 166 164 159
315 311 304 298 292 285 279 275 271 268 265 263 262 260 258 254 251 247 245 243 239 234 230 230 231 228 226 225 223 221 220 219 218 217 215 213 212 212 213 215 216 216 217 217 221 225 226 227 224 224 225 223 223 225 226 224 219 212 201 206 215 207 203 205 183 183 198 206 207 205 198 188 182 176 165 158 153 147 147 148 145 139 144 164 172 168 164 162
315 310 303 296 290 284 278 275 272 268 266 263 262 260 257 254 251 249 246 242 239 234 230 228 229 227 224 222 220 219 218 218 218 217 215 213 212 212 212 214 213 213 214 214 219 224 227 229 227 226 225 223 222 223 225 223 220 212 203 204 214 216 213 211 209 201 200 202 200 206 203 192 184 183 176 166 159 152 151 151 145 140 143 157 167 166 163 162
316 310 303 296 290 283 278 276 274 271 268 266 264 261 259 257 254 251 248 244 240 235 230 228 228 226 222 220 218 218 217 217 218 217 216 214 212 212 213 214 213 212 213 213 216 221 224 226 227 227 226 224 222 222 224 224 222 217 210 205 212 218 216 213 216 220 212 184 163 177 192 189 185 185 182 174 164 157 155 153 147 142 143 150 157 160 161 162
317 311 304 298 291 284 280 279 277 274 272 270 269 266 264 262 259 254 251 247 241 236 231 227 227 226 222 219 218 217 216 216 217 218 217 215 213 213 213 213 213 213 213 213 215 218 221 222 224 225 226 225 222 221 222 223 224 223 217 211 211 216 218 216 211 212 218 188 160 147 165 183 189 186 183 180 172 163 159 156 151 145 146 147 151 158 162 164
319 313 307 301 294 288 286 283 281 280 280 279 276 273 270 267 263 258 252 247 242 236 231 228 226 225 222 219 218 217 216 215 216 217 217 216 214 213 213 212 212 212 213 214 215 217 218 220 220 221 223 224 221 220 220 220 221 220 218 216 214 217 220 220 214 209 215 204 178 169 158 173 189 187 182 181 178 169 161 161 156 149 149 149 153 159 163 166
323 317 310 304 298 294 292 291 290 290 289 287 283 278 273 268 263 258 253 247 240 234 230 228 225 224 222 220 219 218 216 215 215 216 216 216 215 214 213 213 212 211 212 213 216 217 218 219 217 217 220 222 219 217 216 216 217 215 214 215 214 218 222 224 220 211 211 211 194 187 176 163 182 189 184 179 180 176 167 163 160 153 152 153 156 158 159 164
329 321 313 308 304 302 301 300 300 298 295 292 288 281 273 266 260 255 251 246 239 231 228 226 224 223 221 219 218 217 215 214 214 214 214 215 214 213 213 213 212 212 212 212 214 216 218 218 216 215 216 218 216 214 213 214 215 214 214 215 215 216 223 230 229 220 214 214 208 197 190 176 184 195 189 179 178 180 172 166 163 158 156 154 157 158 156 158
335 327 317 313 309 305 306 307 305 303 298 295 292 283 273 266 259 252 245 241 236 228 224 223 222 221 220 218 216 214 213 213 213 213 213 214 213 213 212 212 212 212 212 212 212 213 216 216 213 212 213 214 212 210 211 212 212 212 212 218 222 219 221 229 230 224 216 217 220 212 203 196 187 194 190 182 178 177 175 172 168 167 164 159 159 159 152 149
339 334 325 322 318 310 309 312 312 310 305 300 296 286 277 269 260 251 241 235 231 223 220 220 220 219 218 217 215 212 211 211 211 212 213 213 213 213 212 212 212 212 211 212 212 213 214 212 209 211 213 213 210 207 208 210 211 210 208 214 220 215 214 221 223 219 212 215 223 222 221 213 195 189 190 185 179 176 178 180 176 174 170 165 162 157 149 149
339 336 330 329 330 325 322 324 323 321 315 308 298 286 278 275 267 253 240 233 226 220 217 216 217 217 215 215 213 211 209 208 208 210 211 212 212 212 211 211 212 212 211 211 212 214 212 208 208 212 213 212 209 205 206 209 210 208 205 207 210 203 205 214 218 215 208 210 219 223 228 223 207 194 192 190 185 182 183 185 184 181 174 171 168 162 157 157
339 336 331 329 332 333 332 331 329 325 320 313 306 293 281 281 280 260 240 229 221 216 213 213 214 213 212 213 212 210 208 205 205 207 209 210 211 211 210 211 212 212 212 210 209 210 210 208 210 213 213 212 209 204 204 208 208 207 204 205 204 197 198 207 212 213 207 206 213 219 225 224 214 198 192 198 197 193 193 190 189 190 183 176 173 170 166 162
338 337 335 332 332 335 337 336 331 325 319 314 312 305 292 289 287 263 237 221 215 211 208 209 210 210 209 211 212 210 207 204 203 205 206 207 208 209 209 210 211 212 212 210 208 207 208 209 211 212 213 213 210 203 203 206 207 207 204 205 207 203 199 202 209 211 207 205 209 212 217 219 217 209 201 206 206 203 201 195 193 195 189 177 174 177 175 168
340 345 347 345 346 348 349 342 332 325 319 314 312 311 304 296 285 255 227 212 208 206 204 204 206 207 207 208 210 209 207 204 203 203 204 205 206 207 208 209 211 212 212 211 208 206 207 210 211 211 212 213 210 204 202 204 206 206 205 205 209 212 208 206 209 209 206 206 207 209 210 209 211 212 209 207 208 207 204 197 194 195 189 180 178 179 180 175
352 3 8 7 6 2 355 344 334 328 324 323 324 326 321 309 281 241 216 205 203 200 199 200 201 203 205 206 206 206 206 205 204 203 203 203 204 205 206 207 209 211 212 211 209 207 207 209 211 211 212 213 212 206 202 203 205 205 205 204 206 210 212 211 212 210 208 208 208 209 207 201 202 208 210 209 207 211 210 198 191 191 190 187 185 182 182 180
11 22 25 21 14 4 356 350 344 341 343 348 352 352 344 330 293 224 199 191 193 194 193 193 196 199 202 204 205 204 204 203 204 205 204 202 202 203 205 206 207 209 210 211 210 209 207 208 210 211 212 213 213 207 202 202 202 204 205 204 205 209 211 213 214 213 213 212 209 209 207 201 200 204 207 212 210 212 214 199 187 185 191 194 193 190 187 184
27 28 26 23 14 5 1 359 359 3 12 18 19 16 6 0 16 179 175 172 182 189 187 188 192 195 197 200 203 203 201 202 203 204 204 203 203 203 203 204 206 207 207 209 210 209 208 207 209 210 211 212 212 208 204 201 200 204 207 204 205 208 211 213 214 215 216 215 211 211 210 204 203 204 204 208 208 203 203 198 188 185 192 197 197 198 196 190
30 25 23 21 14 10 11 12 16 24 32 38 43 43 44 56 63 69 132 158 174 185 185 187 190 193 196 198 199 199 200 202 202 202 203 204 204 204 204 204 205 206 206 207 209 209 208 208 208 209 209 210 211 210 206 201 200 204 207 207 207 209 212 213 214 215 217 216 213 213 212 208 207 207 206 205 205 201 201 200 194 191 197 201 200 201 204 200
27 22 20 18 16 16 19 22 28 36 43 50 55 57 57 57 52 55 97 140 164 182 187 188 190 194 198 198 197 197 199 201 202 202 202 203 203 205 205 205 206 206 205 206 208 208 208 209 209 208 208 209 211 211 207 203 203 205 207 208 209 210 213 214 213 214 214 213 214 216 215 212 212 213 212 208 205 203 204 202 196 194 200 205 205 204 205 206
21 19 18 16 18 22 24 28 36 43 49 55 60 63 59 47 45 58 75 106 152 176 186 190 194 200 203 203 202 199 198 199 201 201 201 202 203 204 205 206 206 207 206 206 207 207 208 211 211 209 207 208 210 211 208 206 207 207 207 209 210 212 215 214 214 215 213 212 215 218 218 214 214 218 218 213 210 206 203 202 199 198 200 201 204 208 208 208
16 17 16 15 20 27 30 36 44 47 49 57 63 68 69 58 57 64 46 60 113 137 167 184 196 205 209 210 208 206 203 201 200 200 201 202 203 204 205 206 206 208 208 206 206 207 208 212 212 210 208 208 210 211 209 208 209 209 210 211 213 217 217 216 217 218 216 215 216 220 221 217 216 221 221 218 216 212 207 206 204 205 205 202 200 204 210 212
14 15 14 15 22 30 37 42 45 44 44 53 61 68 77 78 73 63 45 68 93 67 122 172 192 202 206 210 210 209 207 204 201 200 201 202 204 204 205 206 206 207 209 207 207 207 208 212 212 210 210 210 211 211 209 209 211 211 211 212 216 221 222 221 221 221 220 220 223 225 224 218 217 222 222 220 219 216 214 213 212 212 214 212 207 205 209 213
14 15 13 16 22 30 39 44 43 39 37 45 55 61 73 81 77 69 69 89 79 37 51 136 192 196 197 204 208 207 205 204 203 202 201 202 204 205 205 206 206 207 209 209 208 208 209 211 212 210 210 210 211 212 210 210 212 212 212 212 215 220 222 223 223 222 221 223 225 227 227 219 217 222 221 220 219 217 216 215 216 217 216 220 222 215 210 213
14 16 15 18 25 29 38 44 42 37 33 36 46 52 63 75 78 81 84 89 63 29 31 24 253 197 195 202 206 204 202 202 203 204 204 203 204 205 205 206 206 206 208 209 209 209 209 211 212 210 210 210 211 212 212 212 214 214 214 215 216 218 219 220 223 222 220 223 224 226 226 217 213 221 222 220 220 217 216 215 216 218 215 216 228 225 215 212
13 17 17 20 26 30 40 47 44 38 32 34 41 44 53 65 71 82 90 95 63 34 38 9 335 197 201 207 206 202 199 199 202 205 207 207 206 207 207 207 207 206 208 209 210 210 209 210 212 211 209 209 209 211 212 213 213 215 217 218 217 218 220 221 222 221 220 223 225 225 224 214 206 215 220 220 220 217 215 216 215 217 215 210 219 227 222 214
6 14 20 22 25 30 42 48 46 40 35 37 42 43 49 56 57 63 74 142 253 38 85 63 357 182 198 206 205 201 196 196 201 204 207 209 209 210 210 210 209 208 208 209 209 210 210 210 212 211 208 208 208 211 213 214 213 213 216 217 216 219 223 223 223 222 220 222 223 224 225 216 205 209 216 218 217 213 212 213 213 214 213 209 211 218 222 219
358 6 17 22 25 33 44 49 47 44 41 42 43 42 43 39 34 36 347 267 260 255 142 147 171 178 192 200 201 200 195 193 199 204 207 211 211 212 214 214 213 211 210 210 209 210 210 209 211 210 207 207 208 210 213 214 214 213 213 214 216 219 223 225 226 226 224 223 223 224 227 221 208 207 215 218 215 209 208 210 208 210 211 209 208 208 212 218
350 355 6 17 25 36 47 49 47 44 44 43 40 37 33 20 6 9 351 288 260 244 186 176 204 191 191 198 200 200 197 193 196 202 208 212 213 215 217 218 217 214 214 212 210 210 210 208 210 210 206 206 208 209 212 214 214 214 213 213 215 218 221 224 227 228 227 226 224 223 226 224 212 208 213 218 217 209 207 209 206 204 208 209 206 202 205 214
345 345 350 5 19 36 48 48 43 39 38 38 35 31 26 14 355 339 345 329 272 248 215 195 205 207 197 200 204 204 202 200 200 202 208 213 216 218 220 221 220 217 216 215 212 211 210 208 209 210 206 205 207 209 211 214 215 215 215 215 216 218 220 223 226 228 228 227 225 223 224 224 217 210 211 217 221 215 210 211 208 204 205 207 207 204 206 212
341 337 337 350 7 29 45 46 40 35 33 34 33 26 18 11 357 329 327 355 309 255 231 209 204 211 204 202 206 208 206 206 205 206 209 214 218 221 223 226 225 221 218 217 214 212 211 209 209 210 208 205 207 208 210 213 216 215 214 214 216 218 221 223 227 230 231 230 227 224 223 222 218 213 211 215 220 220 217 216 214 211 209 210 211 209 209 211
336 336 334 340 351 19 40 39 35 34 33 32 29 22 14 10 4 350 344 2 343 250 228 216 208 208 208 206 209 210 210 210 210 211 213 215 220 223 225 229 229 225 220 217 215 213 211 210 209 210 209 206 206 208 209 211 215 216 215 214 215 217 220 223 227 230 232 234 233 228 225 222 219 218 217 217 220 221 222 223 222 221 219 218 218 217 216 214
328 333 335 335 335 349 18 21 30 34 32 28 22 17 13 10 8 4 3 10 4 233 214 216 212 210 210 211 213 216 218 217 216 218 218 217 220 224 226 227 229 227 222 218 215 213 212 211 210 210 210 207 206 207 208 210 213 215 216 215 215 217 218 221 225 227 229 233 234 232 228 225 223 223 224 225 225 224 224 228 229 227 227 227 225 223 222 221
321 323 331 332 321 316 320 334 29 38 29 25 18 13 15 12 8 8 9 12 12 326 212 214 214 213 213 216 220 224 228 229 227 227 227 223 222 224 226 226 226 225 223 220 216 212 211 211 210 209 210 209 207 206 207 209 211 214 215 216 216 217 219 220 223 226 229 231 234 234 232 227 224 225 226 228 230 230 229 231 230 228 229 231 230 226 225 227
314 314 322 328 315 304 298 301 17 45 32 25 15 8 16 16 7 6 10 15 12 354 249 220 215 214 215 218 221 225 230 232 233 233 234 233 231 231 231 229 226 225 225 223 218 213 210 209 209 209 209 209 209 208 208 210 211 213 215 216 217 218 219 221 223 226 229 231 233 236 237 235 230 226 226 227 229 231 233 233 233 231 231 233 233 230 229 230
306 302 308 318 313 303 288 288 347 39 32 35 21 6 15 21 9 5 14 21 11 7 333 227 213 208 210 215 219 222 226 229 231 233 234 236 238 238 237 235 231 229 229 227 223 217 212 209 209 209 209 209 209 209 210 211 213 214 215 217 218 219 220 221 224 227 230 232 233 236 238 239 238 234 231 229 228 229 232 234 235 236 237 238 237 237 235 234
295 285 290 300 299 298 294 284 302 354 358 39 36 14 16 22 14 9 14 18 13 18 18 269 216 208 206 210 216 221 225 226 228 231 233 235 239 239 240 240 236 233 232 232 229 223 216 212 210 208 209 209 209 210 211 212 214 215 217 218 220 221 221 221 223 226 229 232 234 236 238 240 241 241 240 237 232 230 230 234 237 240 242 242 242 242 242 240
288 269 268 278 282 287 288 277 273 292 308 339 33 26 21 24 21 15 12 7 7 29 31 28 259 228 222 221 222 223 225 225 225 228 231 234 236 237 239 243 241 237 233 232 232 228 221 218 213 208 209 212 210 209 210 213 215 216 218 220 221 223 224 224 224 225 227 230 233 235 237 239 241 242 243 243 240 236 235 236 238 240 242 244 245 246 247 245
289 263 251 259 269 274 273 271 269 273 290 310 336 23 33 29 25 20 16 10 342 358 29 36 26 305 252 241 235 230 227 223 221 222 224 227 231 232 235 241 242 238 233 230 230 229 225 224 218 211 211 214 213 210 209 212 216 218 220 222 224 226 227 228 227 227 228 230 233 234 236 238 241 242 243 244 244 244 243 242 242 242 243 245 247 249 250 250
294 267 244 248 257 258 258 266 274 276 279 285 288 318 46 41 27 24 27 25 5 285 325 25 30 15 326 270 249 241 242 234 223 220 219 219 224 227 231 235 238 238 233 227 226 227 226 227 224 217 216 217 216 214 211 210 214 218 221 223 226 227 229 230 231 231 231 231 233 235 236 238 240 243 244 244 245 246 247 248 248 246 245 247 250 252 254 254
298 269 241 243 247 245 247 257 266 269 265 255 268 284 13 54 33 27 35 38 34 306 247 263 8 19 1 315 270 252 255 263 245 227 220 218 220 224 229 235 237 236 231 226 225 226 226 229 227 223 223 224 221 217 214 212 213 217 220 223 226 228 230 232 232 233 234 234 234 236 237 238 239 241 244 246 246 246 247 249 251 250 250 252 254 255 255 255
Height
5865 5864 5864 5863 5862 5861 5861 5860 5859 5859 5859 5859 5860 5860 5861 5861 5862 5863 5864 5865 5866 5867 5868 5869 5871 5872 5874 5876 5878 5879 5880 5882 5883 5884 5886 5888 5890 5891 5892 5893 5893 5894 5895 5896 5897 5898 5899 5900 5901 5902 5902 5903 5903 5904 5904 5904 5904 5905 5905 5905 5905 5904 5903 5903 5904 5906 5909 5910 5912 5913 5914 5914 5915 5915 5915 5915 5915 5916 5916 5917 5919 5920 5921 5921 5920 5919 5920 5921
5863 5862 5861 5861 5860 5859 5859 5858 5858 5857 5857 5857 5857 5858 5858 5859 5860 5861 5861 5862 5863 5864 5866 5867 5868 5870 5871 5873 5875 5877 5879 5880 5881 5882 5885 5887 5888 5889 5891 5892 5893 5894 5895 5896 5897 5898 5899 5900 5901 5901 5902 5902 5903 5903 5904 5904 5904 5904 5904 5904 5904 5904 5903 5903 5905 5906 5908 5911 5912 5913 5914 5915 5915 5915 5915 5915 5915 5916 5916 5917 5918 5919 5921 5922 5922 5921 5921 5922
5860 5859 5859 5858 5858 5857 5856 5856 5855 5855 5854 5854 5854 5855 5855 5856 5857 5858 5859 5860 5861 5862 5863 5864 5866 5867 5869 5871 5873 5874 5876 5878 5879 5881 5883 5884 5886 5888 5890 5891 5892 5893 5894 5895 5896 5897 5898 5899 5900 5900 5901 5902 5903 5903 5903 5904 5904 5904 5904 5904 5904 5904 5903 5903 5904 5905 5908 5911 5912 5913 5914 5915 5915 5915 5915 5916 5916 5916 5916 5916 5918 5920 5922 5923 5923 5922 5922 5923
5858 5856 5855 5855 5855 5854 5854 5853 5853 5852 5852 5851 5851 5851 5852 5853 5854 5855 5856 5857 5858 5859 5860 5862 5863 5865 5866 5868 5870 5871 5874 5875 5876 5879 5881 5882 5884 5886 5888 5889 5890 5892 5893 5895 5896 5896 5897 5898 5899 5899 5900 5901 5902 5903 5903 5904 5904 5904 5904 5904 5904 5904 5902 5900 5902 5905 5908 5911 5912 5913 5914 5915 5915 5915 5915 5916 5916 5917 5917 5916 5917 5919 5922 5923 5924 5923 5923 5923
5855 5854 5852 5851 5851 5851 5850 5850 5850 5849 5849 5848 5848 5848 5848 5849 5850 5851 5852 5854 5855 5856 5857 5859 5860 5862 5863 5865 5867 5869 5870 5872 5873 5876 5878 5880 5882 5884 5886 5888 5889 5891 5892 5894 5895 5895 5896 5897 5898 5899 5900 5901 5902 5902 5903 5904 5904 5904 5905 5905 5906 5905 5901 5900 5902 5906 5909 5912 5913 5914 5915 5915 5915 5916 5916 5916 5917 5917 5918 5918 5918 5920 5921 5923 5923 5923 5923 5924
5852 5851 5850 5848 5847 5847 5846 5846 5846 5846 5845 5845 5845 5845 5845 5845 5846 5847 5849 5850 5852 5853 5854 5856 5857 5859 5861 5862 5864 5866 5867 5869 5871 5873 5875 5877 5880 5881 5884 5886 5887 5889 5891 5893 5893 5894 5894 5896 5897 5898 5900 5901 5901 5902 5903 5903 5904 5904 5905 5907 5907 5906 5904 5904 5906 5908 5910 5912 5913 5914 5915 5915 5916 5916 5917 5917 5918 5917 5918 5919 5920 5921 5922 5923 5923 5923 5924 5925
5848 5847 5846 5845 5844 5843 5843 5842 5842 5841 5841 5841 5841 5841 5841 5842 5842 5843 5845 5846 5848 5849 5850 5852 5854 5856 5858 5859 5861 5863 5864 5866 5868 5870 5872 5875 5877 5879 5881 5884 5885 5887 5889 5891 5892 5892 5893 5894 5896 5897 5899 5900 5901 5901 5902 5903 5903 5904 5906 5908 5908 5907 5907 5907 5908 5909 5911 5912 5913 5914 5915 5916 5916 5917 5917 5918 5918 5918 5918 5920 5921 5922 5923 5924 5924 5924 5925 5926
5845 5843 5842 5841 5841 5840 5839 5838 5837 5837 5837 5837 5837 5837 5837 5838 5839 5839 5840 5842 5843 5845 5846 5848 5851 5853 5855 5856 5858 5860 5861 5863 5865 5867 5869 5872 5874 5876 5878 5881 5883 5885 5887 5889 5890 5890 5891 5892 5894 5896 5898 5899 5900 5901 5901 5902 5904 5905 5908 5909 5909 5909 5909 5909 5910 5911 5912 5913 5914 5914 5915 5916 5917 5918 5918 5918 5919 5919 5919 5920 5921 5922 5924 5925 5925 5924 5925 5926
5841 5840 5839 5837 5836 5836 5835 5835 5834 5833 5832 5832 5832 5833 5833 5834 5835 5836 5836 5837 5839 5841 5843 5844 5846 5849 5851 5853 5855 5856 5858 5861 5862 5864 5866 5869 5871 5873 5875 5878 5880 5882 5884 5887 5888 5889 5889 5891 5893 5895 5897 5898 5899 5900 5900 5902 5904 5907 5909 5909 5909 5909 5910 5910 5911 5911 5912 5913 5914 5915 5916 5917 5918 5918 5919 5919 5919 5919 5920 5920 5921 5922 5924 5926 5925 5925 5926 5927
5836 5835 5834 5833 5832 5831 5830 5830 5829 5828 5828 5827 5827 5828 5829 5829 5830 5831 5832 5833 5834 5836 5838 5840 5842 5845 5847 5849 5851 5853 5855 5858 5859 5861 5863 5865 5868 5870 5872 5874 5876 5879 5882 5884 5886 5887 5887 5888 5892 5894 5896 5897 5898 5898 5900 5901 5904 5907 5909 5908 5909 5909 5909 5910 5910 5911 5912 5912 5913 5915 5916 5917 5918 5919 5919 5919 5919 5919 5920 5921 5921 5922 5924 5926 5926 5926 5927 5927
5832 5831 5830 5828 5827 5826 5825 5825 5824 5823 5823 5822 5822 5822 5823 5824 5825 5826 5827 5829 5830 5832 5834 5836 5838 5841 5843 5846 5847 5850 5852 5854 5856 5858 5860 5862 5865 5867 5869 5871 5873 5876 5879 5881 5883 5884 5884 5886 5890 5893 5895 5896 5897 5898 5899 5901 5904 5906 5908 5907 5908 5908 5909 5910 5911 5911 5912 5912 5913 5915 5916 5917 5918 5919 5919 5919 5919 5920 5920 5921 5921 5922 5924 5926 5927 5927 5928 5928
5828 5826 5825 5823 5822 5820 5820 5819 5818 5818 5817 5817 5817 5817 5818 5819 5820 5821 5822 5824 5826 5827 5829 5831 5834 5836 5839 5841 5843 5846 5849 5851 5853 5855 5857 5859 5862 5864 5866 5868 5871 5873 5876 5878 5880 5881 5882 5885 5888 5891 5893 5894 5896 5897 5898 5900 5903 5905 5906 5907 5907 5908 5910 5911 5911 5912 5912 5912 5912 5914 5916 5917 5918 5918 5919 5919 5920 5920 5921 5921 5921 5922 5924 5926 5927 5928 5929 5929
5823 5822 5820 5818 5816 5815 5814 5813 5812 5812 5812 5812 5812 5812 5813 5814 5815 5816 5817 5819 5821 5822 5824 5826 5829 5832 5834 5837 5840 5843 5846 5847 5849 5851 5853 5856 5858 5861 5863 5865 5868 5871 5873 5876 5878 5879 5880 5882 5886 5889 5891 5892 5894 5896 5897 5900 5902 5904 5906 5906 5907 5908 5910 5910 5911 5911 5912 5912 5912 5913 5915 5916 5917 5918 5919 5920 5920 5920 5921 5922 5922 5922 5924 5926 5927 5928 5929 5930
5819 5817 5814 5812 5810 5809 5808 5807 5807 5807 5807 5807 5807 5808 5808 5809 5810 5811 5812 5814 5815 5817 5819 5821 5824 5827 5829 5832 5836 5839 5841 5843 5845 5847 5850 5852 5855 5857 5860 5862 5865 5868 5871 5874 5876 5877 5878 5881 5884 5887 5888 5891 5893 5894 5896 5898 5901 5904 5906 5906 5906 5907 5909 5910 5910 5910 5911 5911 5911 5912 5913 5915 5916 5918 5918 5919 5920 5920 5921 5922 5922 5923 5924 5926 5927 5928 5929 5930
5814 5812 5809 5806 5805 5804 5803 5802 5802 5803 5803 5803 5803 5803 5804 5805 5805 5806 5808 5809 5811 5813 5815 5817 5819 5822 5825 5828 5831 5834 5836 5839 5841 5843 5846 5849 5852 5854 5857 5859 5862 5865 5868 5871 5874 5875 5877 5880 5883 5885 5887 5890 5892 5893 5895 5897 5900 5903 5905 5905 5906 5907 5908 5909 5909 5910 5910 5910 5909 5910 5911 5913 5915 5916 5918 5919 5920 5920 5921 5922 5922 5923 5924 5926 5927 5928 5929 5931
5809 5806 5803 5801 5800 5799 5798 5798 5798 5799 5799 5799 5799 5799 5800 5800 5801 5802 5803 5805 5807 5809 5811 5813 5815 5818 5820 5823 5826 5829 5831 5834 5837 5840 5843 5846 5849 5852 5854 5856 5859 5862 5865 5869 5871 5872 5875 5878 5881 5883 5886 5888 5890 5892 5894 5896 5899 5901 5903 5904 5905 5906 5907 5908 5909 5909 5910 5909 5909 5909 5909 5912 5914 5916 5918 5919 5920 5920 5921 5922 5922 5923 5925 5926 5927 5928 5930 5931
5804 5801 5798 5796 5795 5795 5795 5795 5795 5795 5795 5795 5795 5796 5796 5796 5797 5798 5799 5801 5803 5805 5807 5809 5811 5814 5816 5819 5822 5824 5828 5831 5835 5837 5840 5844 5846 5849 5851 5854 5857 5860 5863 5866 5868 5871 5873 5875 5878 5882 5884 5886 5889 5892 5893 5895 5898 5899 5902 5903 5904 5905 5906 5907 5908 5910 5910 5910 5909 5910 5910 5912 5913 5915 5917 5918 5920 5920 5921 5922 5922 5923 5925 5926 5927 5928 5929 5930
5799 5796 5794 5793 5792 5792 5792 5792 5792 5792 5792 5792 5792 5792 5792 5793 5793 5794 5796 5797 5799 5801 5804 5806 5808 5810 5813 5816 5818 5821 5825 5829 5831 5834 5838 5841 5844 5846 5849 5851 5854 5858 5861 5864 5866 5868 5871 5873 5876 5880 5882 5885 5888 5891 5893 5894 5895 5897 5899 5901 5903 5904 5904 5906 5908 5909 5910 5910 5910 5911 5911 5912 5912 5914 5915 5917 5919 5920 5921 5922 5923 5924 5925 5926 5927 5928 5929 5930
5796 5793 5791 5790 5790 5790 5789 5789 5789 5789 5789 5789 5789 5789 5789 5789 5790 5791 5792 5794 5796 5798 5800 5802 5805 5807 5810 5813 5815 5819 5823 5826 5828 5831 5835 5837 5840 5843 5846 5849 5852 5855 5858 5861 5864 5867 5869 5871 5875 5878 5881 5884 5888 5889 5891 5892 5893 5895 5897 5899 5901 5902 5903 5904 5907 5909 5910 5911 5911 5911 5911 5911 5912 5913 5915 5916 5918 5920 5921 5922 5923 5924 5925 5926 5927 5928 5929 5930
5792 5790 5789 5789 5788 5788 5787 5787 5787 5786 5786 5786 5786 5786 5786 5787 5788 5789 5790 5791 5793 5795 5797 5799 5802 5804 5807 5810 5812 5816 5819 5822 5825 5828 5831 5834 5837 5841 5843 5846 5849 5852 5856 5859 5862 5864 5867 5869 5873 5877 5880 5882 5884 5886 5888 5889 5891 5894 5896 5897 5899 5901 5903 5904 5906 5908 5910 5911 5911 5911 5911 5912 5912 5913 5915 5916 5918 5919 5921 5923 5924 5924 5925 5926 5927 5928 5929 5930
5790 5788 5788 5787 5787 5786 5785 5785 5785 5784 5784 5784 5784 5784 5784 5785 5785 5786 5788 5789 5790 5792 5794 5796 5799 5801 5804 5807 5809 5813 5816 5818 5822 5825 5828 5831 5834 5837 5840 5843 5847 5850 5853 5856 5859 5861 5864 5868 5873 5876 5877 5878 5881 5884 5886 5887 5889 5893 5895 5896 5897 5900 5902 5903 5905 5907 5909 5910 5911 5911 5912 5912 5912 5913 5915 5916 5918 5919 5920 5922 5923 5924 5925 5926 5927 5928 5929 5930
5789 5787 5787 5786 5785 5784 5784 5783 5783 5782 5782 5782 5782 5782 5782 5783 5783 5784 5785 5786 5788 5790 5792 5794 5796 5799 5801 5804 5806 5809 5812 5816 5819 5822 5825 5829 5832 5834 5837 5841 5844 5847 5851 5854 5856 5859 5862 5867 5871 5872 5873 5875 5878 5882 5884 5886 5888 5891 5894 5896 5896 5897 5900 5902 5903 5905 5908 5909 5910 5911 5911 5912 5913 5913 5915 5916 5917 5918 5919 5920 5922 5923 5925 5926 5927 5928 5929 5931
5788 5786 5786 5785 5784 5783 5782 5782 5781 5781 5780 5780 5780 5780 5780 5781 5781 5782 5783 5784 5786 5788 5789 5792 5794 5797 5799 5801 5803 5806 5809 5813 5816 5819 5823 5826 5829 5832 5835 5838 5841 5844 5848 5851 5855 5858 5862 5866 5868 5868 5870 5873 5876 5880 5882 5884 5887 5890 5892 5895 5894 5895 5898 5900 5901 5904 5907 5908 5909 5910 5911 5912 5913 5914 5915 5916 5916 5917 5918 5919 5921 5923 5924 5925 5926 5927 5928 5930
5787 5785 5784 5783 5782 5781 5781 5780 5780 5779 5779 5778 5778 5778 5778 5779 5779 5780 5781 5782 5783 5785 5787 5790 5792 5794 5796 5798 5801 5803 5806 5810 5813 5816 5820 5823 5826 5829 5832 5835 5838 5842 5845 5849 5853 5857 5860 5863 5864 5865 5868 5870 5874 5878 5881 5883 5885 5888 5891 5893 5893 5893 5896 5898 5901 5903 5906 5907 5908 5909 5910 5911 5913 5913 5914 5915 5916 5917 5918 5919 5921 5922 5924 5925 5926 5927 5928 5929
5786 5784 5783 5782 5781 5780 5780 5779 5778 5778 5778 5777 5777 5776 5776 5776 5777 5778 5779 5780 5781 5783 5785 5787 5790 5792 5794 5796 5798 5801 5805 5807 5810 5813 5817 5820 5823 5827 5830 5833 5836 5839 5843 5847 5850 5854 5857 5859 5860 5863 5866 5868 5872 5876 5879 5881 5884 5886 5889 5891 5892 5892 5895 5897 5900 5902 5904 5906 5907 5908 5909 5911 5912 5913 5914 5914 5916 5916 5917 5919 5920 5921 5923 5925 5926 5927 5928 5929
5785 5783 5782 5781 5781 5780 5779 5779 5778 5777 5776 5776 5775 5775 5774 5775 5775 5776 5776 5778 5779 5781 5783 5785 5787 5790 5792 5794 5797 5800 5803 5805 5808 5811 5814 5817 5821 5824 5827 5830 5834 5837 5841 5844 5848 5851 5853 5855 5858 5861 5864 5866 5869 5873 5877 5879 5882 5884 5887 5889 5890 5891 5894 5896 5898 5900 5902 5903 5904 5906 5908 5910 5911 5912 5913 5914 5914 5915 5916 5918 5919 5921 5923 5924 5926 5927 5928 5929
5784 5783 5782 5781 5781 5780 5779 5778 5777 5776 5775 5775 5774 5774 5773 5773 5774 5774 5775 5776 5778 5780 5782 5784 5786 5788 5790 5793 5795 5798 5800 5803 5806 5808 5811 5815 5818 5822 5825 5828 5831 5835 5838 5842 5846 5848 5850 5853 5856 5859 5862 5864 5867 5871 5875 5878 5881 5883 5884 5886 5888 5890 5892 5894 5896 5898 5900 5901 5902 5905 5907 5909 5911 5912 5913 5913 5914 5915 5915 5916 5918 5921 5922 5923 5925 5926 5928 5929
5784 5783 5783 5782 5781 5780 5779 5778 5777 5776 5775 5774 5774 5773 5773 5773 5773 5774 5775 5776 5777 5778 5780 5782 5784 5786 5789 5791 5793 5796 5798 5801 5804 5807 5810 5813 5816 5819 5823 5826 5829 5832 5836 5840 5843 5845 5848 5851 5854 5857 5859 5862 5865 5869 5873 5876 5879 5881 5882 5884 5886 5888 5890 5892 5894 5896 5898 5899 5902 5904 5906 5908 5910 5911 5912 5912 5913 5914 5914 5916 5918 5920 5921 5922 5923 5925 5927 5928
5785 5784 5783 5782 5782 5781 5780 5778 5777 5776 5775 5774 5774 5773 5773 5773 5773 5774 5775 5776 5777 5778 5779 5781 5783 5785 5787 5789 5792 5795 5797 5799 5802 5805 5808 5811 5814 5817 5820 5823 5826 5830 5833 5837 5840 5842 5845 5848 5850 5854 5857 5860 5863 5867 5870 5873 5876 5878 5880 5882 5884 5886 5888 5890 5892 5894 5896 5898 5901 5902 5904 5906 5908 5909 5910 5911 5912 5912 5913 5914 5917 5919 5920 5921 5922 5924 5925 5927
5786 5785 5784 5783 5782 5781 5780 5779 5778 5777 5776 5775 5774 5774 5773 5773 5774 5775 5775 5776 5777 5778 5780 5781 5783 5784 5786 5788 5790 5793 5795 5798 5800 5803 5806 5809 5812 5815 5818 5821 5824 5827 5830 5833 5836 5839 5842 5844 5847 5851 5855 5858 5861 5864 5867 5871 5873 5875 5877 5879 5881 5883 5885 5888 5890 5891 5893 5897 5899 5900 5902 5905 5906 5907 5908 5909 5910 5911 5912 5913 5915 5917 5918 5920 5921 5922 5924 5926
5787 5786 5785 5784 5783 5782 5781 5780 5779 5778 5777 5777 5776 5775 5775 5775 5775 5776 5777 5777 5778 5779 5780 5782 5783 5784 5785 5787 5789 5791 5794 5796 5799 5802 5804 5808 5811 5813 5816 5819 5822 5825 5828 5830 5833 5836 5839 5842 5845 5849 5853 5856 5858 5861 5864 5868 5870 5872 5874 5876 5878 5880 5882 5885 5887 5888 5891 5895 5897 5898 5901 5903 5905 5906 5907 5908 5910 5911 5912 5912 5913 5915 5917 5919 5921 5922 5923 5925
5788 5787 5786 5785 5784 5783 5782 5781 5780 5780 5779 5778 5777 5777 5777 5777 5777 5778 5778 5779 5779 5780 5781 5783 5784 5785 5786 5787 5789 5791 5793 5795 5797 5800 5803 5806 5809 5811 5814 5817 5819 5822 5825 5828 5830 5833 5837 5839 5843 5847 5850 5853 5855 5858 5862 5865 5866 5868 5870 5873 5875 5877 5879 5882 5884 5886 5890 5893 5895 5897 5899 5902 5904 5904 5905 5908 5909 5911 5912 5912 5913 5914 5916 5918 5919 5921 5922 5924
5789 5787 5787 5786 5785 5784 5784 5783 5782 5781 5780 5779 5779 5778 5778 5779 5779 5779 5779 5780 5780 5781 5782 5783 5784 5785 5786 5787 5789 5791 5793 5795 5797 5799 5802 5804 5806 5809 5812 5814 5817 5820 5823 5826 5828 5832 5835 5837 5840 5844 5847 5850 5852 5856 5860 5862 5863 5865 5868 5871 5873 5874 5876 5879 5882 5885 5889 5892 5893 5895 5898 5901 5903 5903 5905 5908 5909 5910 5911 5912 5913 5914 5915 5916 5917 5919 5921 5922
5790 5788 5788 5787 5786 5785 5785 5784 5783 5782 5781 5780 5780 5779 5779 5780 5780 5780 5780 5780 5781 5782 5782 5783 5784 5785 5786 5787 5789 5790 5792 5794 5796 5798 5800 5802 5804 5807 5809 5812 5815 5818 5821 5824 5826 5829 5832 5835 5838 5842 5845 5847 5850 5854 5858 5860 5861 5863 5867 5870 5872 5873 5876 5879 5882 5885 5889 5891 5892 5893 5896 5899 5901 5903 5905 5907 5907 5909 5910 5912 5913 5914 5915 5915 5916 5917 5919 5920
5790 5789 5789 5788 5787 5786 5786 5785 5784 5783 5782 5781 5781 5781 5781 5781 5780 5781 5781 5781 5782 5782 5783 5783 5784 5785 5785 5787 5788 5789 5791 5793 5795 5797 5798 5800 5802 5805 5807 5810 5813 5816 5819 5821 5824 5827 5830 5832 5836 5839 5842 5846 5849 5852 5856 5857 5858 5861 5864 5867 5870 5872 5875 5878 5881 5884 5888 5889 5889 5891 5894 5898 5900 5901 5903 5905 5906 5908 5909 5911 5912 5913 5914 5915 5916 5916 5917 5918
5791 5790 5789 5788 5788 5787 5786 5785 5785 5784 5783 5782 5782 5781 5781 5781 5781 5781 5782 5782 5782 5783 5783 5784 5784 5785 5785 5786 5787 5788 5790 5792 5794 5795 5797 5798 5801 5803 5805 5808 5811 5813 5816 5819 5822 5824 5827 5830 5833 5837 5840 5843 5847 5850 5853 5855 5856 5859 5861 5864 5867 5870 5872 5875 5878 5882 5885 5886 5886 5888 5892 5896 5899 5900 5901 5903 5905 5907 5908 5910 5911 5912 5914 5915 5915 5915 5916 5916
5791 5790 5789 5789 5788 5787 5787 5786 5785 5785 5784 5783 5783 5782 5782 5782 5782 5782 5782 5782 5783 5783 5784 5784 5784 5785 5785 5786 5787 5788 5789 5791 5793 5794 5796 5798 5800 5802 5804 5806 5809 5811 5814 5817 5820 5822 5825 5828 5831 5834 5837 5841 5844 5847 5849 5851 5854 5857 5860 5863 5866 5868 5870 5873 5876 5880 5882 5883 5884 5886 5890 5893 5896 5898 5899 5901 5904 5906 5908 5909 5910 5912 5913 5914 5914 5915 5915 5916
5791 5791 5790 5789 5788 5787 5787 5786 5785 5785 5785 5784 5784 5783 5783 5782 5782 5782 5782 5782 5783 5783 5784 5784 5784 5784 5785 5786 5787 5788 5789 5791 5792 5793 5795 5797 5799 5801 5803 5805 5807 5810 5812 5814 5817 5820 5823 5826 5829 5832 5835 5839 5842 5844 5846 5848 5851 5854 5857 5861 5864 5866 5868 5870 5873 5876 5879 5880 5882 5885 5888 5891 5894 5896 5898 5900 5902 5905 5906 5908 5910 5911 5912 5913 5913 5914 5915 5916
5792 5791 5790 5789 5788 5788 5787 5786 5786 5785 5785 5785 5784 5784 5783 5783 5782 5782 5782 5782 5782 5783 5784 5784 5784 5784 5785 5786 5787 5788 5789 5791 5792 5794 5795 5797 5798 5800 5802 5804 5806 5808 5810 5812 5815 5818 5821 5824 5826 5829 5833 5836 5839 5841 5843 5846 5849 5851 5854 5857 5861 5863 5865 5868 5871 5874 5877 5879 5881 5884 5886 5889 5893 5896 5897 5898 5901 5903 5905 5907 5908 5910 5911 5912 5913 5914 5914 5915
5792 5791 5790 5789 5789 5788 5787 5787 5786 5786 5786 5785 5785 5784 5783 5783 5782 5782 5782 5782 5782 5782 5783 5784 5784 5785 5785 5786 5787 5788 5790 5791 5792 5794 5795 5796 5798 5800 5801 5802 5804 5807 5808 5810 5813 5815 5818 5821 5824 5826 5830 5833 5836 5838 5840 5843 5846 5849 5851 5854 5858 5860 5862 5865 5868 5871 5874 5877 5880 5882 5884 5887 5892 5894 5896 5897 5899 5902 5904 5905 5907 5908 5909 5910 5912 5912 5913 5913
5792 5791 5790 5790 5789 5788 5787 5787 5786 5786 5786 5785 5785 5784 5783 5782 5782 5781 5781 5781 5781 5782 5782 5783 5784 5784 5785 5786 5787 5788 5790 5791 5792 5794 5795 5796 5798 5799 5800 5801 5803 5805 5807 5809 5811 5814 5816 5819 5821 5824 5827 5830 5833 5836 5838 5840 5843 5846 5850 5853 5856 5858 5860 5863 5865 5867 5871 5874 5877 5880 5883 5886 5889 5892 5894 5896 5898 5900 5902 5904 5905 5907 5908 5909 5910 5911 5911 5912
5792 5791 5790 5790 5789 5788 5787 5787 5787 5786 5786 5785 5784 5783 5783 5782 5781 5781 5781 5781 5781 5781 5782 5783 5783 5784 5785 5786 5787 5788 5789 5791 5792 5793 5794 5796 5797 5798 5799 5800 5801 5803 5805 5807 5810 5812 5814 5817 5819 5821 5825 5828 5831 5833 5836 5838 5840 5844 5848 5851 5853 5856 5858 5861 5862 5865 5869 5871 5874 5878 5881 5884 5887 5889 5892 5894 5896 5898 5901 5902 5904 5905 5906 5907 5908 5909 5910 5912
5791 5791 5790 5790 5789 5788 5787 5787 5787 5786 5786 5785 5784 5783 5783 5782 5781 5780 5780 5781 5781 5781 5781 5782 5783 5784 5785 5786 5787 5788 5789 5790 5792 5793 5794 5795 5796 5797 5798 5799 5801 5802 5804 5806 5808 5810 5813 5815 5817 5819 5822 5826 5828 5831 5833 5836 5838 5841 5844 5847 5850 5852 5855 5858 5861 5864 5866 5868 5872 5876 5878 5881 5885 5887 5889 5892 5894 5896 5898 5900 5902 5903 5905 5906 5907 5908 5909 5911
5790 5790 5790 5789 5789 5788 5788 5787 5787 5786 5786 5785 5784 5783 5783 5782 5781 5780 5780 5780 5780 5780 5781 5781 5782 5784 5785 5786 5786 5787 5788 5789 5791 5792 5793 5795 5796 5797 5798 5799 5800 5801 5802 5804 5806 5808 5811 5813 5815 5818 5820 5823 5826 5828 5830 5833 5835 5838 5841 5844 5847 5850 5853 5856 5858 5860 5863 5865 5868 5872 5875 5879 5882 5885 5887 5890 5892 5894 5896 5898 5900 5901 5903 5904 5905 5907 5908 5909
5789 5789 5789 5789 5788 5788 5787 5787 5787 5786 5785 5785 5784 5783 5782 5781 5780 5780 5780 5780 5780 5780 5780 5781 5782 5783 5784 5785 5786 5787 5788 5789 5790 5791 5792 5794 5795 5796 5797 5798 5799 5800 5801 5802 5804 5806 5809 5811 5814 5816 5818 5821 5823 5825 5827 5829 5832 5835 5838 5841 5844 5847 5850 5852 5855 5857 5859 5861 5864 5867 5870 5875 5879 5882 5885 5887 5889 5891 5893 5895 5897 5899 5901 5902 5903 5905 5906 5907
5788 5788 5788 5788 5787 5787 5787 5787 5786 5786 5785 5785 5784 5783 5782 5781 5781 5780 5780 5780 5780 5780 5780 5781 5781 5782 5783 5784 5785 5786 5787 5788 5789 5790 5791 5792 5794 5795 5796 5797 5798 5799 5800 5801 5802 5805 5807 5809 5812 5814 5816 5818 5821 5823 5825 5828 5830 5832 5835 5838 5841 5844 5847 5850 5852 5854 5856 5859 5861 5864 5867 5871 5875 5878 5881 5884 5886 5888 5890 5892 5894 5896 5898 5899 5901 5902 5904 5905
5787 5787 5787 5787 5786 5786 5786 5786 5785 5785 5785 5785 5784 5783 5782 5782 5781 5780 5780 5780 5780 5780 5780 5780 5781 5781 5782 5783 5784 5785 5785 5786 5787 5788 5790 5791 5792 5793 5795 5795 5797 5798 5799 5800 5801 5803 5805 5808 5810 5812 5814 5817 5819 5822 5824 5826 5828 5831 5833 5836 5839 5841 5844 5847 5850 5851 5854 5856 5858 5861 5864 5867 5871 5874 5877 5880 5882 5885 5887 5889 5891 5893 5895 5897 5898 5900 5901 5902
5787 5786 5786 5786 5786 5786 5786 5785 5785 5785 5785 5784 5784 5783 5783 5782 5781 5781 5780 5780 5780 5780 5780 5780 5780 5781 5781 5782 5782 5783 5784 5785 5786 5787 5788 5789 5790 5792 5793 5794 5795 5797 5798 5799 5800 5801 5803 5806 5808 5810 5813 5815 5817 5820 5822 5824 5827 5829 5831 5834 5836 5839 5841 5844 5847 5849 5851 5853 5855 5858 5861 5864 5867 5870 5873 5876 5879 5881 5884 5886 5887 5889 5891 5893 5895 5896 5898 5899
5786 5785 5785 5785 5785 5785 5785 5785 5785 5785 5784 5784 5783 5783 5783 5782 5782 5781 5781 5780 5780 5780 5780 5780 5780 5780 5781 5781 5782 5782 5782 5783 5784 5785 5786 5787 5789 5790 5792 5793 5794 5795 5796 5798 5798 5800 5802 5804 5806 5808 5811 5813 5815 5817 5820 5823 5825 5827 5829 5831 5834 5836 5838 5841 5843 5845 5848 5850 5852 5855 5858 5860 5863 5866 5868 5871 5874 5877 5880 5882 5884 5886 5887 5889 5891 5893 5894 5896
5784 5784 5784 5784 5784 5784 5784 5784 5784 5784 5784 5783 5783 5783 5782 5782 5782 5781 5781 5780 5780 5780 5780 5780 5780 5780 5780 5780 5781 5781 5781 5781 5782 5783 5784 5786 5787 5788 5790 5791 5792 5793 5795 5796 5797 5799 5800 5802 5804 5807 5809 5811 5813 5815 5818 5820 5823 5825 5827 5829 5831 5833 5835 5838 5840 5842 5845 5847 5849 5852 5855 5857 5860 5862 5865 5867 5870 5873 5876 5878 5880 5882 5884 5885 5887 5889 5890 5892
5783 5783 5783 5783 5783 5783 5783 5783 5783 5783 5783 5783 5783 5782 5782 5782 5782 5781 5781 5780 5780 5780 5780 5780 5780 5779 5779 5779 5780 5780 5780 5780 5780 5781 5782 5784 5785 5787 5788 5789 5791 5792 5793 5794 5796 5797 5799 5800 5802 5804 5806 5808 5811 5813 5815 5817 5820 5823 5824 5827 5829 5831 5833 5835 5837 5839 5841 5844 5846 5849 5852 5855 5857 5859 5861 5863 5866 5869 5872 5874 5876 5878 5879 5881 5883 5885 5887 5888
5781 5781 5782 5781 5781 5782 5782 5782 5782 5782 5782 5782 5782 5782 5781 5781 5781 5781 5781 5780 5780 5780 5780 5779 5779 5779 5779 5779 5779 5779 5779 5780 5780 5780 5781 5783 5784 5785 5786 5788 5789 5790 5791 5793 5794 5796 5797 5799 5801 5803 5804 5805 5808 5810 5812 5815 5817 5819 5821 5824 5826 5828 5830 5832 5834 5836 5838 5841 5843 5845 5848 5851 5854 5855 5857 5859 5862 5865 5867 5869 5871 5873 5875 5877 5879 5881 5883 5884